This is the latest recevied weather packets stored in our database for station/object XW7RMR. If no packets are shown the sender has not sent any weather packets the latest 10 day(s).
| Time | Temp. | Humidity | Pressure | Rain* | Wind** | Luminosity | Snow |
|---|---|---|---|---|---|---|---|
| 1777871743 | 23.89° C | 42% | 1006.1 hPa | 0 mm | - | 0 W/m² | - |
| 1777871440 | 23.89° C | 42% | 1006.1 hPa | 0 mm | - | 0 W/m² | - |
| 1777871137 | 24.44° C | 42% | 1006.2 hPa | 0 mm | - | 0 W/m² | - |
| 1777870834 | 23.89° C | 42% | 1006.2 hPa | 0 mm | - | 0 W/m² | - |
| 1777870531 | 23.33° C | 44% | 1005.9 hPa | 0 mm | - | 0 W/m² | - |
| 1777870226 | 23.33° C | 47% | 1006 hPa | 0 mm | - | 0 W/m² | - |
| 1777869924 | 23.89° C | 46% | 1005.9 hPa | 0 mm | - | 0 W/m² | - |
| 1777869621 | 23.33° C | 48% | 1005.9 hPa | 0 mm | - | 0 W/m² | - |
| 1777869318 | 23.89° C | 48% | 1005.8 hPa | 0 mm | - | 0 W/m² | - |
| 1777869015 | 23.89° C | 48% | 1005.8 hPa | 0 mm | - | 0 W/m² | - |
| 1777868712 | 23.89° C | 47% | 1005.9 hPa | 0 mm | - | 0 W/m² | - |
| 1777868409 | 23.89° C | 48% | 1005.9 hPa | 0 mm | - | 0 W/m² | - |
| 1777868104 | 23.89° C | 49% | 1005.8 hPa | 0 mm | - | 0 W/m² | - |
| 1777867801 | 24.44° C | 47% | 1005.6 hPa | 0 mm | - | 0 W/m² | - |
| 1777867498 | 25° C | 44% | 1005.6 hPa | 0 mm | - | 0 W/m² | - |
| 1777867194 | 25.56° C | 41% | 1005.5 hPa | 0 mm | - | 0 W/m² | - |
| 1777866892 | 25.56° C | 40% | 1005.6 hPa | 0 mm | - | 0 W/m² | - |
| 1777866588 | 26.11° C | 39% | 1005.5 hPa | 0 mm | - | 0 W/m² | - |
| 1777866286 | 26.11° C | 38% | 1005.5 hPa | 0 mm | - | 0 W/m² | - |
| 1777865983 | 26.11° C | 38% | 1005.3 hPa | 0 mm | - | 0 W/m² | - |
| 1777865680 | 26.67° C | 39% | 1005.3 hPa | 0 mm | - | 1 W/m² | - |
| 1777865378 | 26.67° C | 38% | 1005.2 hPa | 0 mm | - | 1 W/m² | - |
| 1777865074 | 26.67° C | 37% | 1005.4 hPa | 0 mm | - | 2 W/m² | - |
| 1777864771 | 27.22° C | 37% | 1005.2 hPa | 0 mm | - | 4 W/m² | - |
| 1777864468 | 27.22° C | 35% | 1005.3 hPa | 0 mm | - | 6 W/m² | - |
* Rain latest hour (hover to see other rain measurements)
** Current wind speed in m/s (hover to see current wind gust speed)